Location: Brachstadt
(48.6975°N, 10.6755°E)
Time: 05:23:01
(UTC+00:00)

Cosmos 2142 Rocket - Pass Details

Date: 18 September 2020
Orbit: 952 x 1005 km, 82.9° (Epoch: 29 October)

Event Time Altitude Azimuth Distance (km) Brightness Sun altitude
Exits shadow 20:21:19 71° 172° (S) 1,037 4.4 -27.9°
Maximum altitude 20:22:02 85° 97° (E) 994 4.4 -28.0°
Drops below altitude 10° 20:28:19 10° 10° (N) 2,730 7.2 -28.8°
Sets 20:30:49 0° 10° (N) 3,674 7.9 -29.1°
